TimeMDT,TemperatureF,Dew PointF,Humidity,Sea Level PressureIn,VisibilityMPH,Wind Direction,Wind SpeedMPH,Gust SpeedMPH,PrecipitationIn,Events,Conditions,WindDirDegrees,DateUTC
12:53 AM,55.9,48.0,75,29.93,10.0,Calm,Calm,-,N/A,,Clear,0,2013-06-16 06:53:00
1:53 AM,52.0,48.9,89,29.94,10.0,Calm,Calm,-,N/A,,Clear,0,2013-06-16 07:53:00
2:53 AM,50.0,48.0,93,29.94,10.0,Calm,Calm,-,N/A,,Clear,0,2013-06-16 08:53:00
3:53 AM,48.9,46.9,93,29.93,10.0,Calm,Calm,-,N/A,,Clear,0,2013-06-16 09:53:00
4:53 AM,45.0,44.1,97,29.98,5.0,South,3.5,-,N/A,,Clear,180,2013-06-16 10:53:00
5:53 AM,46.0,44.1,93,30.00,7.0,Calm,Calm,-,N/A,,Clear,0,2013-06-16 11:53:00
7:53 AM,54.0,48.9,83,30.02,10.0,Calm,Calm,-,N/A,,Clear,0,2013-06-16 13:53:00
8:53 AM,64.0,48.9,58,29.97,10.0,Calm,Calm,-,N/A,,Clear,0,2013-06-16 14:53:00
9:53 AM,72.0,46.0,40,29.97,10.0,SSE,4.6,-,N/A,,Clear,160,2013-06-16 15:53:00
10:53 AM,75.9,41.0,29,29.94,10.0,WSW,11.5,-,N/A,,Partly Cloudy,240,2013-06-16 16:53:00
11:53 AM,79.0,35.1,20,29.93,10.0,Variable,6.9,-,N/A,,Clear,0,2013-06-16 17:53:00
12:53 PM,78.1,34.0,20,29.93,10.0,West,11.5,19.6,N/A,,Scattered Clouds,280,2013-06-16 18:53:00
1:53 PM,81.0,33.1,18,29.91,10.0,WSW,15.0,19.6,N/A,,Partly Cloudy,250,2013-06-16 19:53:00
2:53 PM,77.0,37.0,24,29.93,10.0,West,11.5,-,N/A,,Partly Cloudy,260,2013-06-16 20:53:00
3:53 PM,81.0,34.0,18,29.90,10.0,NW,12.7,18.4,N/A,,Partly Cloudy,310,2013-06-16 21:53:00
4:53 PM,75.9,35.1,23,29.93,10.0,NNW,12.7,19.6,0.00,,Scattered Clouds,330,2013-06-16 22:53:00
5:53 PM,73.9,43.0,33,29.92,10.0,SW,6.9,-,0.01,,Clear,230,2013-06-16 23:53:00
6:53 PM,77.0,37.0,24,29.89,10.0,Calm,Calm,-,N/A,,Clear,0,2013-06-17 00:53:00
7:53 PM,72.0,39.9,31,29.89,10.0,Calm,Calm,-,N/A,,Clear,0,2013-06-17 01:53:00
8:53 PM,70.0,37.9,31,29.86,10.0,Calm,Calm,-,N/A,,Partly Cloudy,0,2013-06-17 02:53:00
9:53 PM,62.1,44.1,52,29.88,10.0,Calm,Calm,-,N/A,,Clear,0,2013-06-17 03:53:00
10:53 PM,60.1,39.0,46,29.88,10.0,Calm,Calm,-,N/A,,Clear,0,2013-06-17 04:53:00
11:53 PM,54.0,39.9,59,29.89,10.0,Calm,Calm,-,N/A,,Clear,0,2013-06-17 05:53:00